FW5354 Weather Reports


Display with metric or nautical units.
time (UTC)temp
F
wind
direction
speed
MPH
gust
MPH
rain 1hr
in
rain 24hr
in
rain mn
in
humidity
%
barometer
mb
20200408221005 88 343 0.0 6.0 0.00 0.00 0.00 69 1008.2
20200408220504 88 270 2.0 6.0 0.00 0.00 0.00 69 1008.3
20200408220006 88 320 1.0 5.0 0.00 0.00 0.00 70 1008.3
20200408215008 88 329 1.0 4.0 0.00 0.00 0.00 68 1008.4
20200408214522 88 291 0.0 5.0 0.00 0.00 0.00 67 1008.4
20200408214002 89 250 2.0 6.0 0.00 0.00 0.00 66 1008.7
20200408213510 89 250 2.0 6.0 0.00 0.00 0.00 68 1008.8
20200408213002 89 339 2.0 5.0 0.00 0.00 0.00 67 1008.7
20200408212509 89 273 1.0 5.0 0.00 0.00 0.00 67 1008.7
20200408212001 89 300 2.0 5.0 0.00 0.00 0.00 66 1008.9
20200408211503 90 267 2.0 5.0 0.00 0.00 0.00 65 1008.9
20200408211106 90 303 1.0 6.0 0.00 0.00 0.00 65 1008.8
20200408210559 89 324 1.0 6.0 0.00 0.00 0.00 67 1008.8
20200408210158 89 284 1.0 5.0 0.00 0.00 0.00 67 1008.9
20200408205057 89 215 1.0 5.0 0.00 0.00 0.00 66 1008.9
20200408204612 88 311 1.0 4.0 0.00 0.00 0.00 67 1009.0
20200408204056 88 255 2.0 4.0 0.00 0.00 0.00 67 1009.1
20200408203557 88 286 2.0 4.0 0.00 0.00 0.00 68 1009.1
20200408203221 89 283 1.0 4.0 0.00 0.00 0.00 66 1009.1
20200408202556 89 294 1.0 5.0 0.00 0.00 0.00 67 1009.3
20200408202052 88 330 1.0 5.0 0.00 0.00 0.00 69 1009.3
20200408201626 87 274 2.0 5.0 0.00 0.00 0.00 70 1009.3
20200408201050 87 250 1.0 5.0 0.00 0.00 0.00 68 1009.5
20200408200550 88 241 3.0 5.0 0.00 0.00 0.00 70 1009.6
20200408200150 88 313 1.0 5.0 0.00 0.00 0.00 70 1009.6
20200408195549 88 314 2.0 5.0 0.00 0.00 0.00 70 1009.7
20200408195105 88 289 2.0 5.0 0.00 0.00 0.00 69 1009.7
20200408194717 88 273 1.0 8.0 0.00 0.00 0.00 68 1009.7
20200408194048 88 305 1.0 5.0 0.00 0.00 0.00 70 1009.7
20200408193552 87 330 1.0 5.0 0.00 0.00 0.00 73 1009.9
20200408193158 88 48 2.0 6.0 0.00 0.00 0.00 69 1010.0
20200408192545 87 274 2.0 6.0 0.00 0.00 0.00 72 1009.9
20200408192054 87 244 1.0 6.0 0.00 0.00 0.00 72 1010.1
20200408191649 87 284 2.0 6.0 0.00 0.00 0.00 71 1010.2
20200408191043 87 291 2.0 6.0 0.00 0.00 0.00 72 1010.5
20200408190546 86 302 2.0 4.0 0.00 0.00 0.00 74 1010.5
20200408190104 85 165 0.0 7.0 0.00 0.00 0.00 73 1010.5
20200408185555 85 203 1.0 6.0 0.00 0.00 0.00 76 1010.6
20200408185040 85 355 1.0 6.0 0.00 0.00 0.00 75 1010.6
20200408184632 84 308 2.0 6.0 0.00 0.00 0.00 75 1010.6
20200408184041 84 252 2.0 5.0 0.00 0.00 0.00 75 1010.8
20200408183544 84 340 2.0 5.0 0.00 0.00 0.00 75 1010.8
20200408183107 84 316 2.0 5.0 0.00 0.00 0.00 77 1011.0
20200408182540 83 277 0.0 5.0 0.00 0.00 0.00 76 1011.0
20200408182049 83 62 2.0 6.0 0.00 0.00 0.00 77 1011.1
20200408181603 83 253 1.0 7.0 0.00 0.00 0.00 76 1011.2
20200408181050 83 297 1.0 7.0 0.00 0.00 0.00 77 1011.3
20200408180536 83 267 2.0 7.0 0.00 0.00 0.00 76 1011.4
20200408180133 83 347 2.0 7.0 0.00 0.00 0.00 79 1011.3
20200408175539 81 298 3.0 6.0 0.00 0.00 0.00 80 1011.8
20200408175035 81 290 3.0 6.0 0.00 0.00 0.00 79 1011.9
20200408174544 81 294 3.0 6.0 0.00 0.00 0.00 79 1011.9
20200408174034 81 261 1.0 8.0 0.00 0.00 0.00 81 1012.0
20200408173553 81 303 3.0 8.0 0.00 0.00 0.00 80 1012.1
20200408173101 81 333 3.0 9.0 0.00 0.00 0.00 79 1012.1
20200408172534 81 266 2.0 9.0 0.00 0.00 0.00 80 1012.0
20200408172034 81 268 1.0 6.0 0.00 0.00 0.00 81 1012.0
20200408171536 80 57 1.0 6.0 0.00 0.00 0.00 81 1012.1
20200408171027 79 295 3.0 7.0 0.00 0.00 0.00 83 1012.3
20200408170528 79 248 1.0 5.0 0.00 0.00 0.00 83 1012.3
20200408170038 79 297 1.0 6.0 0.00 0.00 0.00 83 1012.3
20200408165526 79 304 3.0 7.0 0.00 0.00 0.00 83 1012.5
20200408165033 79 351 2.0 7.0 0.00 0.00 0.00 82 1012.5
20200408164609 79 61 3.0 6.0 0.00 0.00 0.00 82 1012.6
20200408164032 79 204 1.0 5.0 0.00 0.00 0.00 84 1012.6
20200408163523 79 297 1.0 5.0 0.00 0.00 0.00 84 1012.5
20200408163111 79 283 2.0 5.0 0.00 0.00 0.00 83 1012.5
20200408162521 78 299 1.0 5.0 0.00 0.00 0.00 84 1012.5
20200408162020 78 247 2.0 7.0 0.00 0.00 0.00 85 1012.5
20200408161639 78 8 3.0 7.0 0.00 0.00 0.00 85 1012.5
20200408161018 78 312 3.0 5.0 0.00 0.00 0.00 86 1012.5
20200408160518 77 359 1.0 7.0 0.00 0.00 0.00 87 1012.5
20200408160112 77 323 3.0 7.0 0.00 0.00 0.00 86 1012.7
20200408155522 76 212 2.0 4.0 0.00 0.00 0.00 87 1012.5
20200408155036 76 261 2.0 4.0 0.00 0.00 0.00 86 1012.5
20200408154545 76 252 1.0 4.0 0.00 0.00 0.00 88 1012.3
20200408154014 76 221 1.0 5.0 0.00 0.00 0.00 88 1012.3
20200408153518 76 335 2.0 5.0 0.00 0.00 0.00 88 1012.3
20200408153051 75 267 1.0 6.0 0.00 0.00 0.00 88 1012.5
20200408152533 75 308 2.0 6.0 0.00 0.00 0.00 88 1012.7
20200408152013 75 267 2.0 6.0 0.00 0.00 0.00 88 1012.7
20200408151525 75 280 2.0 7.0 0.00 0.00 0.00 89 1012.7
20200408151018 75 278 2.0 7.0 0.00 0.00 0.00 89 1012.7
20200408150516 75 284 2.0 5.0 0.00 0.00 0.00 89 1012.6
20200408150012 75 278 2.0 6.0 0.00 0.00 0.00 89 1012.7
20200408145521 75 272 1.0 5.0 0.00 0.00 0.00 89 1012.6
20200408145012 75 275 1.0 4.0 0.00 0.00 0.00 89 1012.6
20200408144514 75 295 2.0 5.0 0.00 0.00 0.00 89 1012.4
20200408144010 75 256 2.0 5.0 0.00 0.00 0.00 90 1012.3
20200408143508 75 272 1.0 5.0 0.00 0.00 0.00 91 1012.2
20200408143029 75 339 2.0 4.0 0.00 0.00 0.00 91 1012.1
20200408142510 75 271 1.0 4.0 0.00 0.00 0.00 91 1012.1
20200408141521 74 158 1.0 3.0 0.00 0.00 0.00 92 1012.0
20200408141005 74 260 0.0 2.0 0.00 0.00 0.00 92 1012.0
20200408140509 74 259 0.0 5.0 0.00 0.00 0.00 92 1012.2
20200408140007 74 206 1.0 5.0 0.00 0.00 0.00 92 1012.1
20200408135507 74 275 2.0 4.0 0.00 0.00 0.00 92 1012.0
20200408135003 74 274 2.0 4.0 0.00 0.00 0.00 92 1012.0
20200408134501 74 300 1.0 3.0 0.00 0.00 0.00 92 1012.1
20200408134100 74 265 0.0 3.0 0.00 0.00 0.00 93 1012.1
20200408133558 74 266 0.0 3.0 0.00 0.00 0.00 93 1012.1
20200408133133 74 275 0.0 3.0 0.00 0.00 0.00 93 1011.9
20200408132558 74 277 1.0 4.0 0.00 0.00 0.00 93 1011.9
20200408132113 74 259 1.0 4.0 0.00 0.00 0.00 93 1011.8
20200408131659 73 281 1.0 4.0 0.00 0.00 0.00 93 1011.7
20200408131103 73 289 1.0 4.0 0.00 0.00 0.00 93 1011.6
20200408130554 73 242 1.0 4.0 0.00 0.00 0.00 93 1011.5
20200408130249 73 259 1.0 4.0 0.00 0.00 0.00 93 1011.4
20200408125555 73 285 1.0 4.0 0.00 0.01 0.00 93 1011.3
20200408124613 73 45 1.0 4.0 0.00 0.01 0.00 94 1011.0
20200408124051 73 327 1.0 2.0 0.00 0.01 0.00 94 1010.9
20200408123550 73 311 0.0 3.0 0.00 0.01 0.00 94 1010.7
20200408123113 73 309 1.0 3.0 0.00 0.01 0.00 94 1010.7
20200408122608 73 248 1.0 3.0 0.00 0.01 0.00 94 1010.6
20200408122042 73 53 0.0 3.0 0.00 0.01 0.00 93 1010.5
20200408121550 73 252 1.0 3.0 0.00 0.01 0.00 94 1010.4
20200408121039 73 314 0.0 3.0 0.00 0.01 0.00 93 1010.4
20200408120537 73 238 0.0 4.0 0.00 0.01 0.00 94 1010.4
20200408120239 73 20 1.0 4.0 0.00 0.01 0.00 94 1010.4
20200408115535 73 274 1.0 4.0 0.00 0.01 0.00 94 1010.4
20200408114609 73 258 1.0 4.0 0.00 0.01 0.00 94 1010.3
20200408114040 73 276 1.0 4.0 0.00 0.01 0.00 94 1010.2
20200408113531 73 347 0.0 3.0 0.00 0.01 0.00 94 1010.2
20200408113034 73 288 0.0 3.0 0.00 0.01 0.00 94 1010.1
20200408112545 73 328 0.0 1.0 0.00 0.01 0.00 94 1010.1
20200408112031 73 328 0.0 1.0 0.00 0.01 0.00 94 1010.0
20200408111652 73 328 0.0 1.0 0.00 0.01 0.00 94 1009.9
20200408111033 73 328 0.0 2.0 0.00 0.01 0.00 94 1010.0
20200408110535 72 328 0.0 2.0 0.00 0.01 0.00 94 1009.9
20200408110053 72 328 0.0 2.0 0.00 0.01 0.00 94 1009.7
20200408105540 72 197 0.0 2.0 0.00 0.01 0.00 94 1009.7
20200408104546 72 231 0.0 2.0 0.00 0.01 0.00 94 1009.9
20200408104031 72 250 0.0 2.0 0.00 0.01 0.00 94 1009.7
20200408103530 72 278 0.0 2.0 0.00 0.01 0.00 94 1009.7
20200408103151 72 283 1.0 3.0 0.00 0.01 0.00 94 1009.9
20200408102533 72 245 1.0 5.0 0.00 0.01 0.00 94 1009.7
20200408102030 72 269 0.0 5.0 0.00 0.01 0.00 94 1009.9
20200408101600 72 215 0.0 3.0 0.00 0.01 0.00 94 1009.9
20200408101036 72 232 0.0 3.0 0.00 0.01 0.00 94 1009.9
20200408100528 72 46 0.0 3.0 0.00 0.01 0.00 94 1009.9
20200408100118 72 138 0.0 2.0 0.00 0.01 0.00 94 1010.0
20200408095529 72 268 0.0 6.0 0.00 0.01 0.00 95 1010.1
20200408094531 72 297 0.0 5.0 0.00 0.01 0.00 95 1010.0
20200408094034 72 179 0.0 2.0 0.00 0.01 0.00 95 1010.0
20200408093528 72 43 0.0 3.0 0.00 0.01 0.00 95 1010.1
20200408093203 72 337 0.0 3.0 0.00 0.01 0.00 95 1010.1
20200408092528 72 333 1.0 3.0 0.00 0.01 0.00 95 1010.0
20200408092032 72 305 0.0 3.0 0.00 0.01 0.00 95 1009.9
20200408091549 72 328 0.0 2.0 0.00 0.01 0.00 95 1010.0
20200408091052 72 300 0.0 2.0 0.00 0.01 0.00 95 1009.8
20200408090527 72 249 0.0 3.0 0.00 0.01 0.00 95 1009.8
20200408090127 72 249 0.0 3.0 0.00 0.01 0.00 95 1009.8
20200408085527 72 299 0.0 1.0 0.00 0.01 0.00 95 1009.8
20200408084538 72 300 0.0 3.0 0.00 0.01 0.00 95 1010.0
20200408084026 72 310 0.0 3.0 0.00 0.01 0.00 95 1010.0
20200408083526 72 290 1.0 4.0 0.00 0.01 0.00 95 1010.1
20200408083129 72 300 1.0 4.0 0.00 0.01 0.00 95 1010.1
20200408082533 72 281 0.0 5.0 0.00 0.01 0.00 95 1010.2
20200408082039 72 312 1.0 5.0 0.00 0.01 0.00 95 1010.2
20200408081544 72 326 1.0 4.0 0.00 0.01 0.00 95 1010.1
20200408081024 72 253 1.0 5.0 0.00 0.01 0.00 95 1010.3
20200408080537 72 285 2.0 5.0 0.00 0.01 0.00 95 1010.3
20200408080036 72 276 1.0 4.0 0.00 0.01 0.00 95 1010.4
20200408075523 72 282 1.0 3.0 0.00 0.01 0.00 95 1010.5
20200408074526 72 319 0.0 3.0 0.00 0.01 0.00 95 1010.3
20200408074027 72 278 0.0 3.0 0.00 0.01 0.00 95 1010.4
20200408073535 72 282 0.0 1.0 0.00 0.01 0.00 95 1010.5
20200408073112 72 282 0.0 2.0 0.00 0.01 0.00 95 1010.6
20200408072534 72 281 0.0 3.0 0.00 0.01 0.00 95 1010.7
20200408072020 72 360 0.0 3.0 0.00 0.01 0.00 95 1010.8
20200408071604 72 163 0.0 2.0 0.00 0.01 0.00 95 1010.7
20200408071020 72 62 0.0 2.0 0.00 0.01 0.00 95 1010.8
20200408070527 72 50 0.0 3.0 0.00 0.01 0.00 95 1010.8
20200408070034 72 34 0.0 3.0 0.00 0.01 0.00 95 1010.7
20200408065524 72 215 0.0 1.0 0.00 0.01 0.00 95 1010.8
20200408064540 72 215 0.0 0.0 0.00 0.01 0.00 94 1010.9
20200408064020 72 215 0.0 1.0 0.00 0.01 0.00 94 1010.9
20200408063532 72 215 0.0 1.0 0.00 0.01 0.00 94 1011.0
20200408063042 72 215 0.0 0.0 0.00 0.01 0.00 94 1011.0
20200408062516 72 215 0.0 1.0 0.00 0.01 0.00 94 1010.9
20200408062020 72 215 0.0 1.0 0.00 0.01 0.00 94 1011.0
20200408061515 72 112 0.0 2.0 0.00 0.01 0.00 94 1011.0
20200408061021 72 204 0.0 2.0 0.00 0.01 0.00 94 1010.9
20200408060513 72 198 0.0 1.0 0.00 0.01 0.00 94 1011.0
20200408060014 73 198 0.0 2.0 0.00 0.01 0.00 94 1011.0
20200408055512 73 195 0.0 2.0 0.00 0.01 0.00 93 1011.1
20200408054513 73 195 0.0 2.0 0.00 0.01 0.00 93 1011.2
20200408054010 73 178 0.0 1.0 0.00 0.01 0.00 93 1011.2
20200408053512 73 178 0.0 1.0 0.00 0.01 0.00 93 1011.2
20200408053012 73 178 0.0 1.0 0.00 0.01 0.00 92 1011.3
20200408052511 73 178 0.0 1.0 0.00 0.01 0.00 92 1011.3
20200408052019 73 142 0.0 2.0 0.00 0.01 0.00 92 1011.4
20200408051504 73 137 0.0 3.0 0.00 0.01 0.00 92 1011.4
20200408051001 73 131 0.0 3.0 0.00 0.01 0.00 92 1011.4
20200408050601 74 223 0.0 3.0 0.00 0.01 0.00 91 1011.5
20200408050129 74 212 0.0 3.0 0.00 0.01 0.00 91 1011.3
20200408045605 74 302 0.0 4.0 0.00 0.01 0.01 91 1011.3
20200408044713 74 221 0.0 4.0 0.00 0.01 0.01 91 1011.1
20200408044059 74 202 0.0 3.0 0.00 0.01 0.01 91 1011.2
20200408043606 74 268 1.0 3.0 0.00 0.01 0.01 91 1011.1
20200408043139 74 279 0.0 4.0 0.00 0.01 0.01 91 1011.1
20200408042608 74 341 1.0 4.0 0.00 0.01 0.01 91 1011.2
20200408042058 75 172 1.0 4.0 0.00 0.01 0.01 91 1011.2
20200408041716 75 270 1.0 4.0 0.00 0.01 0.01 91 1011.2
20200408041113 75 320 1.0 5.0 0.00 0.01 0.01 90 1011.2
20200408040558 75 278 2.0 7.0 0.00 0.01 0.01 90 1011.3
20200408040207 75 342 2.0 7.0 0.00 0.01 0.01 90 1011.3
20200408035607 75 317 1.0 4.0 0.00 0.01 0.01 90 1011.3
20200408034702 75 309 1.0 3.0 0.00 0.01 0.01 90 1011.4
20200408034058 76 4 1.0 3.0 0.00 0.01 0.01 90 1011.4
20200408033607 76 310 0.0 3.0 0.00 0.01 0.01 90 1011.4
20200408033246 76 317 0.0 3.0 0.00 0.01 0.01 90 1011.4
20200408032557 76 228 0.0 2.0 0.00 0.01 0.01 90 1011.4
20200408032136 76 224 1.0 3.0 0.00 0.01 0.01 89 1011.4
20200408031748 76 252 0.0 3.0 0.00 0.01 0.01 89 1011.4
20200408031057 76 234 1.0 4.0 0.00 0.01 0.01 89 1011.3
20200408030607 77 278 0.0 4.0 0.00 0.01 0.01 89 1011.3
20200408030207 77 221 0.0 3.0 0.00 0.01 0.01 89 1011.3
20200408025559 77 307 1.0 3.0 0.00 0.01 0.01 88 1011.1
20200408024628 77 272 1.0 3.0 0.00 0.01 0.01 87 1011.0
20200408024101 77 300 1.0 4.0 0.00 0.01 0.01 87 1011.0
20200408023559 77 285 1.0 5.0 0.00 0.01 0.01 87 1011.0
20200408023229 77 315 1.0 4.0 0.00 0.01 0.01 86 1010.9
20200408022609 77 274 0.0 5.0 0.00 0.01 0.01 86 1010.9
20200408022105 77 215 1.0 5.0 0.00 0.01 0.01 86 1010.8
20200408021556 77 245 0.0 2.0 0.00 0.01 0.01 86 1010.8
20200408021101 77 269 0.0 1.0 0.00 0.01 0.01 86 1010.7
20200408020555 77 269 0.0 0.0 0.00 0.01 0.01 86 1010.6
20200408020154 77 269 0.0 0.0 0.00 0.01 0.01 86 1010.6
20200408015554 78 269 0.0 0.0 0.00 0.01 0.01 85 1010.6
20200408014714 78 269 0.0 0.0 0.00 0.01 0.01 84 1010.5
20200408014057 78 269 0.0 0.0 0.00 0.01 0.01 84 1010.4
20200408013553 78 269 0.0 0.0 0.00 0.01 0.01 84 1010.4
20200408013121 78 269 0.0 0.0 0.00 0.01 0.01 84 1010.3
20200408012553 78 269 0.0 0.0 0.00 0.01 0.01 84 1010.3
20200408012053 79 269 0.0 0.0 0.00 0.01 0.01 83 1010.2
20200408011838 79 269 0.0 0.0 0.00 0.01 0.01 83 1010.2
20200408011054 79 269 0.0 0.0 0.00 0.01 0.01 82 1010.0
20200408010557 80 269 0.0 0.0 0.00 0.01 0.01 82 1010.1
20200408010127 80 269 0.0 1.0 0.00 0.01 0.01 81 1010.1
20200408005552 80 269 0.0 1.0 0.00 0.01 0.01 80 1010.1
20200408004725 81 269 0.0 1.0 0.00 0.01 0.01 79 1010.2
20200408004053 81 269 0.0 1.0 0.00 0.01 0.01 78 1010.2
20200408003552 81 274 0.0 1.0 0.00 0.01 0.01 78 1010.2
20200408003125 81 274 0.0 1.0 0.00 0.01 0.01 77 1010.3
20200408002611 82 274 0.0 1.0 0.00 0.01 0.01 76 1010.3
20200408002123 82 274 0.0 1.0 0.00 0.01 0.01 76 1010.3
20200408001730 82 274 0.0 1.0 0.00 0.01 0.01 75 1010.4
20200408001114 82 274 0.0 3.0 0.00 0.01 0.01 75 1010.4
20200408000558 83 275 0.0 3.0 0.00 0.01 0.01 74 1010.3
20200408000216 83 276 1.0 3.0 0.00 0.01 0.01 73 1010.3
20200407235553 83 314 1.0 3.0 0.00 0.01 0.01 73 1010.3
20200407235100 83 256 1.0 2.0 0.00 0.01 0.01 73 1010.1
20200407234602 83 262 0.0 4.0 0.00 0.01 0.01 73 1010.2
20200407234051 83 300 1.0 4.0 0.00 0.01 0.01 72 1010.3
20200407233551 84 276 1.0 3.0 0.00 0.01 0.01 72 1010.3
20200407233145 84 339 1.0 4.0 0.00 0.01 0.01 71 1010.3
20200407232559 84 218 0.0 3.0 0.00 0.01 0.01 72 1010.3
20200407231637 84 257 0.0 4.0 0.00 0.01 0.01 71 1010.2
20200407231054 84 226 1.0 5.0 0.00 0.01 0.01 71 1010.1
20200407230550 84 340 2.0 5.0 0.00 0.01 0.01 71 1010.1
20200407230234 85 257 1.0 5.0 0.00 0.01 0.01 70 1010.1
20200407225552 85 279 1.0 6.0 0.00 0.04 0.01 71 1010.1
20200407225049 85 170 1.0 6.0 0.00 0.04 0.01 70 1010.0
20200407224618 85 314 1.0 6.0 0.00 0.04 0.01 70 1010.0
20200407224107 85 300 1.0 5.0 0.00 0.04 0.01 71 1010.1
20200407223548 85 4 2.0 5.0 0.00 0.04 0.01 70 1010.2
20200407223107 85 328 1.0 5.0 0.00 0.04 0.01 70 1010.2
20200407222547 85 308 1.0 4.0 0.00 0.04 0.01 69 1010.3
20200407221636 86 275 2.0 5.0 0.00 0.04 0.01 67 1010.2